Regional Weather Roundup
Issued by NWS

Home | Current Version | Previous Version | Text Only | Print | Product List | Glossary Off
Versions: 1 2 3 4 5 6 7 8 9 10 11 12 13 14 15 16 17 18 19 20 21 22 23 24 25 26 27 28 29 30 31 32 33 34 35 36 37 38 39 40 41 42 43 44 45 46 47 48 49 50

000
ASUS44 KMEG 261710
RWRTN
TENNESSEE HOURLY STATE WEATHER ROUNDUP
NATIONAL WEATHER SERVICE MEMPHIS TN
1100 AM CST FRI DEC 26 2014

TNZ002-004-019-021-049-052-054-088>092-261800-
WEST TENNESSEE

CITY           SKY/WX    TMP DP  RH WIND       PRES   REMARKS
MEMPHIS INTL   CLOUDY    55  38  52 S10       30.24F
NWS MEMPHIS      N/A     51 N/A N/A MISG        N/A
JACKSON        CLOUDY    50  37  61 S7G16     30.26F
DYERSBURG      PTSUNNY   48  30  49 S9        30.25F
UNION CITY     SUNNY     50  39  66 S14       30.22F
PARIS          SUNNY     46  37  71 S10       30.24F
HUNTINGDON     CLOUDY    48  38  68 S12       30.26F
LEXINGTON      SUNNY     48  37  66 S9        30.26F
SAVANNAH       SUNNY     48  37  66 S12       30.29F
$$

TNZ008-025-027-028-033-062-065-066-261800-
NORTH MIDDLE TENNESSEE

CITY           SKY/WX    TMP DP  RH WIND       PRES   REMARKS
NASHVILLE      MOSUNNY   52  38  58 S10       30.30F
CLARKSVILLE    SUNNY     51  38  60 S10       30.26F
SMYRNA         SUNNY     51  39  63 SW7       30.32F
COOKEVILLE     SUNNY     50  39  66 SW8       30.32F
CROSSVILLE     SUNNY     48  33  56 VRB6      30.32F
$$

TNZ061-075-076-078-094-096-097-261800-
SOUTH MIDDLE TENNESSEE

CITY           SKY/WX    TMP DP  RH WIND       PRES   REMARKS
FAYETTEVILLE   SUNNY     45  36  70 MISG      30.32F
TULLAHOMA      SUNNY     46  37  71 S7        30.34S
WINCHESTER     SUNNY     48  37  66 S3        30.35S
MCMINNVILLE    SUNNY     50  39  66 CALM      30.33F
COLUMBIA       SUNNY     52  46  82 S6        30.28F
SHELBYVILLE    SUNNY     48  39  71 S9        30.33F
$$

TNZ017-018-042-046-047-261800-
NORTHEAST TENNESSEE

CITY           SKY/WX    TMP DP  RH WIND       PRES   REMARKS
TRI CITIES     MOSUNNY   45  35  68 CALM      30.32F
ELIZABETHTON   SUNNY     45  30  57 S3        30.31F
$$

TNZ012-013-036-069-073-074-261800-
CENTRAL EAST TENNESSEE

CITY           SKY/WX    TMP DP  RH WIND       PRES   REMARKS
KNOXVILLE      MOSUNNY   43  36  76 W3        30.36F
OAK RIDGE      SUNNY     42  36  79 CALM      30.37F
GATLINBURG     SUNNY     43  32  65 CALM      30.34F
MORRISTOWN     SUNNY     45  36  70 CALM      30.34S
$$

TNZ083-085-099-261800-
SOUTHEAST TENNESSEE

CITY           SKY/WX    TMP DP  RH WIND       PRES   REMARKS
CHATTANOOGA    CLOUDY    38  37  97 CALM      30.38F FOG
$$

SKY/WX REPORTED AS FAIR MEANS FEW OR NO CLOUDS BELOW
12 THOUSAND FEET.




USA.gov is the U.S. government's official web portal to all federal, state and local government web resources and services.